Details From EGAC - Belfast City
To EGGP - Liverpool
Flight Number -
Tags generated
Created
Modified
Stats Distance 132 nm / 244 km
Max Altitude 13,500 ft / 4,115 m
Waypoints 3
Social Downloads 0
Likes 0
Share VATSIM

Download

Looking for another format? Having issues loading an existing format? Contact us
Advertisement - Login to hide

Notes

Basic altitude profile: - Ascent Rate: 2500ft/min - Ascent Speed: 250kts - Cruise Altitude: 26000ft - Cruise Speed: 420kts - Descent Rate: 1500ft/min - Descent Speed: 250kts

Route

EGAC MIKEL EGGP

ID Type Via Altitude Latitude Longitude Leg Dist Tot Dist Heading (true) Name
O EGAC APT - 0 ft / 0 m 54.61811˚ -5.87258˚ - 0 nm - Belfast City
MIKEL FIX - 13,500 ft / 4,115 m 54.27500˚ -4.86278˚ 40 nm 40 nm 120° / 121° -
O EGGP APT - 0 ft / 0 m 53.33363˚ -2.84977˚ 91 nm 131 nm 128° / 129° Liverpool

Altitude Profile

Advertisement - Login to hide

EGAC

Details ICAO EGAC (BHD)
Name Belfast City
Region United Kingdom
Timezone Europe/London (UTC+1.0)
Stats Elevation 15 ft / 5 m (AMSL)
Location 54.618108° -5.872575°
Runways 1
Magnetic Variation 3.017° W

METAR

EGAC 221150Z AUTO 03008KT 9999 BKN024/// 13/10 Q1023

Decode

TAF

Not found

Departure Runways

ID Width Length Bearing (true) Bearing (mag) Surface Threshold Offset Overrun Length
04 148 ft / 45 m 6,009 ft / 1,832 m 34.93° 37.95° Asphalt 302 ft / 92 m 0 ft / 0 m
22 148 ft / 45 m 6,009 ft / 1,832 m 214.94° 217.96° Asphalt 0 ft / 0 m 0 ft / 0 m

EGGP

Details ICAO EGGP (LPL)
Name Liverpool
Region United Kingdom
Timezone Europe/London (UTC+1.0)
Stats Elevation 80 ft / 24 m (AMSL)
Location 53.333632° -2.849769°
Runways 1
Magnetic Variation 1.606° W

METAR

EGGP 221150Z 07009KT 020V110 CAVOK 19/09 Q1020

Decode

TAF

TAF EGGP 221057Z 2212/2312 06008KT 9999 FEW025 TEMPO 2219/2308 8000 PROB30 TEMPO 2302/2307 BKN014

Decode

Destination Runways

ID Width Length Bearing (true) Bearing (mag) Surface Threshold Offset Overrun Length
09 151 ft / 46 m 7,466 ft / 2,276 m 85.59° 87.20° Asphalt 180 ft / 55 m 0 ft / 0 m
27 151 ft / 46 m 7,466 ft / 2,276 m 265.61° 267.22° Asphalt 0 ft / 0 m 0 ft / 0 m

Approach Navaids

Runway Type Ident Frequency Range Bearing (true) Bearing (mag) Slope Elevation
09 Localiser ILVR 111.75 MHz 18 nm / 33 km 85.61° 87.22° - 77 ft / 23 m (AMSL)
09 Glidescope ILVR 111.75 MHz 10 nm / 19 km 85.60° 87.21° 3.00° 80 ft / 24 m (AMSL)
09 DME ILVR 111.75 MHz 18 nm / 33 km - - - 88 ft / 27 m (AMSL)
27 Localiser ILQ 111.75 MHz 18 nm / 33 km 265.05° 266.65° - 55 ft / 17 m (AMSL)
27 Glidescope ILQ 111.75 MHz 10 nm / 19 km 265.60° 267.21° 3.00° 80 ft / 24 m (AMSL)
27 DME ILQ 111.75 MHz 18 nm / 33 km - - - 88 ft / 27 m (AMSL)

Popular Alternatives